DECAYED

STARLINK-1396, 45681 (Decayed)

Orbit data source: Space-Track

STARLINK-1396, 45681 was a payload satellite owned by SpaceX/Seattle (US) in LEO that was launched on Thu, 04 Jun 2020 UTC via an FALCON 9 launch vehicle from the Air Force Eastern Test Range (AFETR). Payload-class satellites include a variety of spacecraft equipped with specific instruments for various scientific and technological missions. These include communications satellites like Starlink; space stations such as the ISS; scientific satellites like the Hubble; Earth observation satellites from companies like Planet Labs, Umbra, and HawkEye 360; GPS; miniature CubeSats for education and research; and military/defense satellites.

Not visible in the next 10 days
Identifier
45681, 2020-035AA
Orbit
Decayed
Last TLE update
1 year ago
Origin
Manufacturer
SpaceX/Seattle
Mission
Decayed Commercial Communications
Bus & Motor
STARLINK, Unknown motor
Mass
260 kg wet, ~248 kg dry
Launch date (UTC)
2020-06-04 (5 years ago)
Launch vehicle
FALCON 9
Launch site
Air Force Eastern Test Range (AFETR)
Object type
Payload
Rocket body
Debris
Shape & HBR
Box + 1 Pan, 8.86 m
Radar Cross Section
13.562 m², Large (>1 m²)

Expand to show TLE details & history

TLE from 1 year ago
0 STARLINK-1396
1 45681U 20035AA  24188.41185093  .20957709  12377-4  19423-2 0  9992
2 45681  53.0136 229.7481 0005246 322.1080  52.9322 16.37950032227044
Epoch: 2024-07-06T09:53Z
TLE epoch observation values (Epoch: 2024-07-06T09:53:03.92Z)
Latitude
11.99569°
Longitude
165.76258°
Altitude
169.345 km
Speed
7.808 km/s
True Right ascension
15h 55m 36s
True Declination
11° 55' 11"
Sunlit
Object was in full shadow at epoch
Visualization orbit readout
Visualization observer readout
Orbital elements
Apogee altitude
174.99 km
Perigee altitude
168.118 km
Semi-major axis
6,549.691 km
Eccentricity
0.00052
Inclination
53.0136°
RAAN
229.7481°
Arg. of periapsis
322.108°
True anomaly
Unknown
Mean anomaly
52.9322°
Eccentric anomaly
Unknown
Mean motion
4.0946 °/min
Orbital period
87.92 mins
BSTAR
0.0019423
Loading maneuver chart data...
Loading SW <> Apogee altitude chart data...

STARLINK-1396 Visibility

Observer location: undefined°, undefined°

This satellite is decayed
Span
Click to sort rows by Start time (UTC) header in descending order
Start Az.
Max El. time (UTC)
Max El. Az.
Max El.
End time (UTC)
End Az.
|